Weather History for Cut Bank, MT

Change the Weather History Date:

Thursday, December 13, 2012

  Actual Average Record
Temperature  
Mean Temperature 22 °F 22 °F  
Max Temperature 36 °F 32 °F 57 °F (1934)
Min Temperature 7 °F 12 °F -33 °F (1922)
Degree Days  
Heating Degree Days 43 43  
Month to date heating degree days 472 543  
Since 1 July heating degree days 2612 2806  
Cooling Degree Days 0 0  
Month to date cooling degree days 0 0  
Year to date cooling degree days 210 162  
Moisture  
Dew Point 11 °F    
Average Humidity 70    
Maximum Humidity 92    
Minimum Humidity 47    
Precipitation  
Precipitation 0.00 in 0.01 in 0.32 in (1929)
Month to date precipitation 0.18 0.09  
Year to date precipitation 9.03 10.77  
Snow  
Snow 0.00 in - - ()
Snow Depth T in    
Sea Level Pressure  
Sea Level Pressure 29.78 in    
Wind  
Wind Speed 18 mph (WSW)    
Max Wind Speed 39 mph    
Max Gust Speed 46 mph    
Visibility 6 miles    
Events Fog    
T = Trace of Precipitation, MM = Missing Value Source: NWS Daily Summary

Daily Weather History Graph

Daily Weather History Graph

Search for Another Location

Airport:

Trip Planner

Search our weather history database for the weather conditions in past years. The results will help you decide how hot, cold, wet, or windy it might be!

Date:

Astronomy

Dec. 13, 2012 Rise Set
Actual Time 8:14 AM MST 4:33 PM MST
Civil Twilight 7:37 AM MST 5:10 PM MST
Nautical Twilight 6:57 AM MST 5:50 PM MST
Astronomical Twilight 6:18 AM MST 6:29 PM MST
Moon 8:24 AM MST (12/13) 5:22 PM MST (12/13)
Length of Visible Light 9h 33m
Length of Day
8h 19m
New Moon, 0% of the Moon is Illuminated
Dec 13
New Moon
Dec 19
First Quarter
Dec 28
Full
Jan 4
Last Quarter
Jan 11
New

Hourly Weather History & Observations

Time (MST) Temp. Windchill Dew Point Humidity Pressure Visibility Wind Dir Wind Speed Gust Speed Precip Events Conditions
12:36 AM 10.4 °F - 8.6 °F 92% 29.75 in 2.0 mi Calm Calm - N/A   Scattered Clouds
12:39 AM 10.4 °F - 8.6 °F 92% 29.75 in 1.0 mi Calm Calm - N/A   Mist
12:46 AM 12.2 °F 6.1 °F 10.4 °F 92% 29.75 in 0.5 mi SSW 3.5 mph - N/A Fog Light Freezing Fog
12:53 AM 12.2 °F 6.1 °F 12.2 °F 100% 29.75 in 2.0 mi South 3.5 mph - N/A   Mostly Cloudy
12:56 AM 12.0 °F - 10.9 °F 95% 29.90 in 6.0 mi Calm Calm - N/A   Overcast
1:43 AM 8.6 °F 2.0 °F 6.8 °F 92% 29.75 in 2.5 mi NE 3.5 mph - N/A   Scattered Clouds
1:45 AM 8.6 °F 2.0 °F 6.8 °F 92% 29.75 in 1.0 mi NNE 3.5 mph - N/A   Mist
1:50 AM 8.6 °F 0.1 °F 6.8 °F 92% 29.75 in 0.2 mi NE 4.6 mph - N/A Fog Light Freezing Fog
1:56 AM 8.1 °F -2.0 °F 6.1 °F 92% 29.92 in 0.2 mi NNE 5.8 mph - N/A Fog Light Freezing Fog
2:02 AM 8.6 °F 0.1 °F 6.8 °F 92% 29.75 in 0.5 mi North 4.6 mph - N/A Fog Light Freezing Fog
2:15 AM 8.6 °F 2.0 °F 6.8 °F 92% 29.75 in 0.5 mi NE 3.5 mph - N/A Fog Light Freezing Fog
2:22 AM 8.6 °F - 6.8 °F 92% 29.75 in 0.2 mi Calm Calm - N/A Fog Light Freezing Fog
2:29 AM 8.6 °F - 6.8 °F 92% 29.75 in 0.5 mi Calm Calm - N/A Fog Light Freezing Fog
2:38 AM 8.6 °F - 6.8 °F 92% 29.75 in 1.2 mi Calm Calm - N/A   Partly Cloudy
2:48 AM 6.8 °F - 3.2 °F 85% 29.75 in 3.0 mi Calm Calm - N/A   Clear
2:56 AM 8.1 °F - 5.0 °F 87% 29.91 in 3.0 mi Calm Calm - N/A   Clear
3:56 AM 10.9 °F 4.7 °F 8.1 °F 88% 29.90 in 8.0 mi SSW 3.5 mph - N/A   Clear
4:56 AM 14.0 °F 6.5 °F 10.9 °F 88% 29.90 in 10.0 mi South 4.6 mph - N/A   Clear
5:56 AM 16.0 °F 8.8 °F 12.9 °F 88% 29.89 in 10.0 mi SSW 4.6 mph - N/A   Clear
6:56 AM 17.6 °F 8.2 °F 12.2 °F 79% 29.73 in 10.0 mi SSW 6.9 mph - N/A   Clear
7:56 AM 21.9 °F 12.5 °F 15.1 °F 75% 29.88 in 10.0 mi SW 8.1 mph - N/A   Clear
8:56 AM 26.1 °F 15.0 °F 19.0 °F 75% 29.86 in 10.0 mi WSW 12.7 mph - N/A   Clear
9:56 AM 32.0 °F 19.8 °F 19.9 °F 61% 29.83 in 10.0 mi WSW 20.7 mph 27.6 mph N/A   Clear
10:56 AM 34.0 °F 20.5 °F 18.0 °F 52% 29.81 in 10.0 mi WSW 28.8 mph 35.7 mph N/A   Clear
11:56 AM 35.1 °F 21.0 °F 17.1 °F 48% 29.79 in 10.0 mi WSW 34.5 mph 43.7 mph N/A   Clear
12:56 PM 35.1 °F 21.2 °F 17.1 °F 48% 29.77 in 10.0 mi WSW 33.4 mph 39.1 mph N/A   Clear
1:56 PM 35.1 °F 20.2 °F 17.1 °F 48% 29.75 in 10.0 mi West 39.1 mph 46.0 mph N/A   Clear
2:56 PM 34.0 °F 20.1 °F 17.1 °F 50% 29.75 in 10.0 mi WSW 31.1 mph 41.4 mph N/A   Clear
5:56 PM 28.9 °F 14.0 °F 15.1 °F 56% 29.75 in 10.0 mi WSW 27.6 mph 38.0 mph N/A   Clear
6:56 PM 28.0 °F 13.3 °F 15.1 °F 58% 29.74 in 10.0 mi WSW 25.3 mph - N/A   Clear
7:56 PM 27.0 °F 13.9 °F 14.0 °F 58% 29.72 in 10.0 mi WSW 18.4 mph - N/A   Clear
8:56 PM 27.0 °F 15.6 °F 14.0 °F 58% 29.71 in 10.0 mi WSW 13.8 mph - N/A   Clear
9:56 PM 26.1 °F 13.6 °F 12.0 °F 55% 29.70 in 10.0 mi WSW 16.1 mph - N/A   Clear
10:56 PM 25.0 °F 13.6 °F 12.0 °F 58% 29.70 in 10.0 mi SW 12.7 mph - N/A   Clear
11:56 PM 26.1 °F 12.0 °F 12.9 °F 58% 29.69 in 10.0 mi WSW 20.7 mph - N/A   Clear